Location: Caltech
(34.1382°N, 118.1253°W)
Time: 05:26:17
(UTC-07:00)

Iridium 49 - Visible Passes

Search period start: 25 June 2016 00:00
Search period end: 05 July 2016 00:00
Orbit: 776 x 779 km, 86.4° (Epoch: 24 June)

Date Brightness Start Highest point End Pass type
(mag) Time Alt. Az. Time Alt. Az. Time Alt. Az.
25 Jun 6.0 21:02:43 10° N 21:07:55 67° E 21:13:05 10° S visible
25 Jun 8.8 22:46:38 10° WNW 22:47:56 11° WNW 22:49:16 10° W visible
26 Jun 6.8 20:29:35 10° NNE 20:34:19 34° E 20:39:00 10° SSE visible
26 Jun 8.2 22:10:50 10° NNW 22:14:44 22° W 22:18:39 10° SW visible
27 Jun 7.2 21:36:33 10° NNW 21:41:26 42° W 21:46:18 10° SSW visible
28 Jun 6.1 21:02:47 10° N 21:08:01 83° W 21:13:13 10° S visible
29 Jun 6.3 20:29:24 10° N 20:34:29 51° E 20:39:31 10° SSE visible
29 Jun 8.7 22:11:53 10° NW 22:14:40 15° W 22:17:26 10° WSW visible
30 Jun 8.0 21:37:01 10° NNW 21:41:25 28° W 21:45:48 10° SW visible
01 Jul 6.8 21:02:58 10° NNW 21:08:04 55° W 21:13:08 10° SSW visible
02 Jul 6.0 20:29:22 10° N 20:34:36 77° E 20:39:48 10° S visible
03 Jul 8.6 21:37:46 10° NW 21:41:21 19° W 21:44:57 10° SW visible
04 Jul 7.6 21:03:20 10° NNW 21:08:05 36° W 21:12:48 10° SSW visible
